GFSMW_sfc_rhum_147.txt.gz
RH
43 42 43 46 50 51 52 55 57 58 59 63 68 68 70 67 65 62 66 59 72 80 82 76 80 73 67 75 80 84 85 91 90 98 98 98 95 95 97 98 97 97 96
48 45 47 50 57 56 56 57 58 59 60 62 64 67 67 67 66 64 62 67 61 76 81 76 76 74 67 79 82 74 93 90 89 97 97 98 96 97 95 97 96 97 95
54 52 48 56 61 61 61 60 60 61 62 62 59 61 63 67 71 69 66 61 61 64 76 80 80 74 68 76 76 74 75 82 90 84 90 99 97 98 97 92 93 97 97
53 53 54 58 62 61 61 63 63 64 60 61 66 69 72 76 72 73 70 67 67 55 73 77 80 77 70 68 77 72 73 75 87 86 77 82 88 96 99 97 96 97 96
57 59 58 59 63 65 65 66 66 65 63 67 66 70 74 73 72 71 73 71 67 66 55 77 79 81 78 68 75 77 74 75 78 84 78 89 92 88 97 100 99 99 96
61 57 55 59 68 65 66 68 69 68 66 71 67 71 76 77 78 77 77 77 73 66 55 75 84 84 91 74 74 78 77 78 75 77 78 71 72 87 91 97 97 91 97
63 62 65 71 72 69 72 71 72 72 72 72 70 74 77 78 80 81 82 83 80 73 64 79 88 71 85 86 75 80 78 77 76 80 79 73 67 85 82 88 95 98 97
60 62 71 79 77 72 76 79 77 77 79 75 75 74 75 82 83 80 83 86 77 74 76 86 78 90 79 89 86 84 81 76 78 83 77 77 72 77 80 82 88 97 98
63 66 75 83 75 77 78 81 82 80 89 83 82 79 77 81 86 85 91 78 72 70 73 88 83 77 66 78 89 88 84 80 81 86 83 78 77 78 76 72 82 86 97
66 72 80 85 75 77 77 80 80 83 93 84 89 81 82 80 81 83 87 91 92 79 94 91 94 88 74 92 94 92 85 85 83 87 85 81 85 81 83 80 74 85 88
71 74 82 85 81 78 79 79 78 77 84 90 89 87 86 87 85 87 90 92 96 86 82 82 89 88 91 89 91 96 91 89 86 85 89 84 80 85 88 86 82 84 91
69 73 81 85 86 82 79 78 76 79 80 83 82 84 87 89 89 90 90 91 94 95 86 85 80 84 77 81 91 92 90 87 90 90 90 85 87 82 86 84 83 85 88
68 73 85 89 89 87 82 77 73 76 78 75 84 84 87 88 91 92 91 91 90 92 93 96 95 91 85 79 81 90 94 88 86 90 89 89 87 91 91 86 87 87 88
65 73 86 87 90 92 81 75 74 73 74 76 78 82 84 86 89 91 93 93 91 91 92 94 94 94 82 84 85 88 91 95 89 87 91 89 91 87 91 92 91 93 94
58 68 82 85 88 89 79 72 74 71 72 75 78 82 80 79 83 86 90 92 93 94 92 94 94 93 90 88 97 97 87 96 94 94 88 89 95 98 95 94 95 96 95
59 63 67 74 86 78 72 70 75 72 71 78 79 78 78 77 83 85 87 89 90 91 93 93 93 95 90 96 98 99 97 95 94 97 94 92 100 100 100 100 100 96 95
56 62 65 69 75 72 66 70 70 69 70 78 74 77 78 80 82 82 87 90 92 90 93 92 92 95 93 95 96 98 97 98 96 94 95 94 96 100 99 100 100 100 100
54 55 55 57 61 63 61 63 62 66 70 72 72 77 82 81 81 83 88 92 91 92 92 93 93 93 90 96 96 98 99 98 98 98 99 98 99 99 99 99 100 100 99
54 55 53 57 58 58 57 58 62 66 69 75 74 78 82 80 86 88 90 91 94 92 92 92 92 94 93 95 96 98 99 98 99 97 99 100 100 100 100 99 100 100 100
51 52 52 55 58 58 58 59 66 69 74 76 74 79 84 78 83 86 90 89 91 91 91 93 93 91 94 93 95 98 99 99 99 98 99 99 99 100 100 98 98 99 100
50 50 53 59 61 60 62 67 69 72 72 72 75 80 81 83 79 82 82 84 89 90 90 95 93 92 96 96 96 97 96 98 98 98 98 99 98 99 99 100 100 100 100
52 52 57 59 61 63 70 76 80 68 71 72 77 83 83 88 79 82 80 81 84 88 91 90 92 93 96 93 95 96 96 94 95 98 98 99 97 97 99 98 99 99 98
57 56 60 61 61 62 67 81 79 76 74 77 79 83 85 85 91 90 85 84 85 89 92 91 92 93 94 96 96 97 96 96 96 97 97 97 96 95 97 97 97 98 99
64 62 65 68 70 67 68 74 80 81 78 81 81 84 91 89 93 89 88 90 91 90 91 93 94 95 95 97 96 97 96 92 95 96 97 97 97 95 96 95 96 97 97
69 69 75 75 76 72 73 73 79 86 91 84 84 89 87 92 92 96 97 95 96 96 96 96 97 96 97 98 96 98 96 97 98 96 92 94 94 94 95 96 96 96 96
75 79 79 80 76 76 80 82 84 88 95 94 90 94 94 93 91 93 96 96 94 88 95 94 97 96 98 100 98 93 90 88 89 90 94 95 95 96 96 96 96 96 96

GFSMW_sfc_rhum_150.txt.gz
RH
52 53 53 60 62 61 60 60 62 63 64 66 69 70 73 69 68 66 68 72 74 74 75 77 82 84 84 80 85 87 94 95 94 97 100 99 99 98 97 95 95 96 97
57 52 56 63 66 67 67 61 63 64 66 64 64 68 70 70 68 68 68 72 74 75 73 75 76 82 86 90 86 85 92 88 93 96 94 100 98 99 99 98 97 96 95
62 58 56 67 74 74 68 65 66 66 67 65 65 68 67 68 71 70 69 67 72 75 77 76 77 78 87 89 83 81 79 85 95 88 87 99 96 98 96 98 98 97 97
61 60 60 65 72 76 67 69 67 68 64 67 72 74 74 76 71 72 71 70 70 74 76 76 75 76 83 85 81 75 74 79 88 96 78 85 88 92 99 97 97 97 97
63 63 64 68 76 76 73 73 71 70 68 70 71 74 73 72 72 73 75 74 72 71 77 78 79 78 82 82 82 84 83 77 79 81 82 92 96 94 94 90 99 99 94
62 61 65 70 78 66 71 72 73 73 71 71 73 74 74 76 77 77 80 80 76 75 77 78 81 78 77 84 83 86 79 76 75 79 76 74 76 90 97 99 85 87 96
66 71 78 86 69 69 74 72 73 75 72 73 75 75 75 75 78 79 83 85 82 82 78 82 85 79 72 81 81 90 97 88 86 83 78 74 69 88 92 95 95 91 94
67 77 86 88 78 75 78 82 80 74 70 70 75 76 76 78 78 80 82 84 88 89 82 87 83 76 74 87 84 91 91 91 90 85 84 77 72 81 81 92 96 99 99
73 81 84 85 83 84 81 86 87 77 70 74 76 77 80 82 86 86 87 88 84 83 91 90 85 76 88 82 87 87 85 91 91 89 87 81 75 72 86 88 80 90 98
75 78 84 83 84 86 84 83 84 80 74 78 80 79 84 79 86 88 89 88 89 86 92 87 80 90 92 84 83 80 81 87 92 90 90 84 80 78 78 88 78 84 91
75 77 82 83 86 87 86 82 81 80 78 79 80 80 83 84 85 90 91 91 90 89 90 91 93 92 90 87 86 79 77 90 95 91 88 87 80 86 87 87 86 85 92
73 76 79 82 87 89 85 79 79 80 77 76 77 80 81 81 84 91 88 91 91 90 90 90 89 95 91 82 83 84 76 91 94 92 90 85 84 87 82 86 81 81 85
74 75 84 90 91 89 90 79 76 80 74 74 75 77 83 83 85 86 88 88 92 89 90 89 94 89 89 92 87 83 84 78 86 89 87 83 85 87 86 86 82 79 82
69 75 87 89 92 91 89 81 78 74 73 74 75 75 81 82 83 86 86 90 90 91 92 92 92 92 92 87 88 87 88 85 84 84 83 87 85 84 85 88 84 84 89
69 76 86 91 92 92 90 77 81 73 73 73 70 75 78 78 79 82 85 86 89 91 90 91 92 92 90 89 95 88 89 86 87 83 87 90 87 92 87 88 88 89 90
67 70 72 84 92 87 78 75 82 74 75 74 77 71 75 76 79 82 83 85 88 89 89 91 92 94 88 97 97 98 97 87 86 82 87 85 99 99 100 100 100 94 92
66 68 72 79 79 80 72 77 74 72 75 81 80 81 75 79 79 79 81 86 91 89 91 92 92 92 92 100 97 98 96 96 89 87 91 97 97 100 97 100 100 100 100
60 61 65 69 71 73 70 73 69 73 78 81 83 82 84 81 78 80 84 87 94 93 91 91 92 93 88 97 97 98 99 99 99 98 98 96 98 99 99 99 100 100 99
61 64 66 68 69 69 68 68 72 74 79 85 85 82 84 84 84 84 87 87 90 94 95 89 91 93 93 95 96 98 98 97 98 98 98 100 100 100 100 98 99 99 100
59 63 65 67 70 72 72 75 79 80 83 85 82 82 86 87 85 84 84 86 86 87 85 89 92 91 94 92 95 95 95 98 99 99 98 98 99 100 100 98 98 99 100
60 60 63 70 70 70 75 80 82 87 83 77 79 83 86 88 85 84 81 81 85 87 88 88 88 90 95 94 94 95 95 98 98 98 98 98 99 100 100 100 98 99 100
64 63 67 69 68 70 78 82 87 83 82 75 80 87 87 85 88 88 84 79 81 84 87 88 90 90 97 95 93 94 96 95 97 98 98 99 97 98 98 99 99 98 98
70 68 72 71 72 72 74 84 84 79 84 80 82 86 86 88 91 93 92 87 86 88 90 90 91 93 93 97 98 95 96 95 97 97 96 95 94 95 96 97 98 98 100
74 75 72 77 80 74 77 81 83 79 85 86 85 85 90 89 89 93 92 91 93 92 91 92 94 94 93 95 96 98 97 94 95 96 96 97 96 94 95 95 96 97 97
76 80 79 82 78 80 82 83 81 80 90 83 86 91 94 92 91 92 97 95 94 95 96 96 97 96 95 98 97 96 97 98 98 95 94 94 94 95 95 96 96 96 97
85 80 86 86 87 84 84 87 84 86 92 88 90 94 95 94 91 93 86 75 78 80 88 92 96 95 95 94 93 94 88 84 88 95 96 96 95 96 96 96 96 96 96

GFSMW_sfc_rhum_153.txt.gz
RH
61 61 64 69 70 69 64 68 68 69 71 72 74 73 76 74 74 70 70 74 77 77 81 83 86 85 83 88 92 95 96 97 96 100 98 99 96 97 99 98 98 98 98
66 60 66 72 76 69 68 68 70 70 72 70 72 74 75 74 72 71 69 71 74 74 74 79 85 84 89 83 88 94 93 94 97 95 97 99 100 99 96 99 98 97 97
71 64 64 76 80 69 75 69 73 73 72 72 71 73 72 72 73 72 72 70 72 74 74 74 82 86 88 89 84 93 93 94 97 93 95 99 96 98 98 97 96 95 94
67 66 72 77 76 76 76 74 73 76 69 73 76 80 78 80 75 74 71 70 70 73 75 71 77 85 87 88 86 88 92 89 92 97 87 88 94 98 99 98 96 92 93
71 75 79 79 79 73 75 80 78 75 74 74 75 76 78 77 76 73 74 73 72 74 75 76 73 79 85 88 85 86 89 90 87 88 88 92 96 94 97 95 95 97 91
72 73 78 76 76 75 81 84 80 76 73 73 71 74 75 77 78 77 80 78 76 76 77 76 76 78 82 87 87 81 88 88 91 82 83 79 78 92 95 97 91 90 90
77 82 84 83 78 80 84 80 78 79 74 72 71 74 77 74 78 79 79 82 80 81 81 82 86 84 83 82 85 84 87 87 88 88 86 77 70 68 82 88 96 89 88
78 83 84 85 85 83 86 87 84 80 76 72 73 74 74 74 76 77 79 82 86 84 84 86 86 86 85 85 87 85 84 90 97 98 97 88 77 73 75 82 96 99 91
80 81 81 83 87 89 87 91 88 81 76 78 76 77 74 74 77 80 84 86 85 82 84 86 89 88 90 89 87 87 85 90 93 91 96 93 85 80 83 77 77 88 93
78 80 81 83 87 87 88 90 88 85 81 80 80 76 73 73 78 82 84 86 88 88 89 87 88 90 91 91 88 87 91 93 92 90 87 89 91 87 87 90 80 80 86
79 80 80 83 87 87 89 89 86 84 81 80 80 78 78 75 79 82 84 85 87 89 88 86 87 89 91 89 93 92 91 91 84 84 86 84 87 91 89 89 86 86 91
77 77 78 84 85 86 86 86 85 84 79 78 77 74 74 79 82 83 82 85 87 88 91 92 86 87 90 91 96 94 88 87 87 86 82 80 86 89 88 90 88 84 86
73 76 82 92 91 88 88 85 83 83 77 77 76 76 75 82 83 82 82 83 85 87 91 89 92 88 90 90 87 93 87 86 85 82 82 85 91 93 90 91 91 81 84
74 74 86 93 92 91 89 84 80 79 77 78 78 81 76 82 83 80 82 84 84 88 89 91 86 88 90 85 87 90 90 85 83 85 86 75 78 89 90 90 88 86 87
73 74 89 93 93 92 90 85 83 77 78 80 82 85 79 78 81 80 81 81 84 86 87 92 88 86 92 86 94 92 94 92 86 86 85 83 83 87 89 88 89 89 92
71 72 80 90 90 90 84 82 83 80 80 84 84 81 79 73 81 80 80 81 84 85 86 90 91 96 86 92 94 97 95 94 90 90 88 85 93 95 100 100 98 89 89
64 72 80 83 83 85 80 84 81 78 80 86 84 77 80 82 82 80 79 82 86 86 88 93 95 94 92 96 94 98 95 95 94 89 88 88 83 96 88 99 100 100 99
63 70 76 78 78 81 81 81 77 80 83 76 81 78 83 85 84 83 84 84 85 88 89 95 96 95 88 93 97 96 96 97 93 89 88 85 85 88 93 90 99 97 100
69 75 74 76 80 81 82 78 80 83 76 80 84 77 83 87 87 88 88 86 87 88 90 86 93 95 91 92 97 97 95 96 98 97 98 96 87 90 99 88 99 100 100
65 70 72 75 78 80 82 80 86 79 84 86 85 82 84 85 85 89 89 86 85 83 85 86 87 95 96 94 95 98 99 99 99 97 98 98 100 100 100 98 97 98 100
64 63 68 77 78 76 82 82 88 81 78 81 83 82 83 84 79 91 83 83 84 85 85 86 84 86 95 96 96 95 96 97 96 97 99 98 99 100 100 98 97 98 100
69 67 74 76 76 77 80 89 87 76 74 84 84 84 84 79 80 94 79 76 82 84 85 87 87 86 88 97 97 97 96 96 98 98 98 98 98 98 99 99 99 99 98
78 72 76 79 78 79 82 92 82 74 77 84 86 87 78 83 84 92 90 85 86 88 89 89 92 90 88 92 96 97 98 96 97 98 98 96 98 96 97 97 99 99 99
84 74 80 85 83 83 80 87 76 81 85 83 87 84 83 81 87 83 89 90 92 92 90 91 92 91 90 93 92 96 97 96 96 96 96 96 96 96 97 96 97 98 98
85 82 86 82 88 85 86 88 82 86 87 84 85 88 85 89 90 90 85 91 93 93 96 95 96 96 94 96 92 95 97 98 98 97 93 92 93 94 95 95 96 96 96
82 83 85 85 88 87 86 87 88 90 92 87 87 90 90 90 88 92 95 73 76 75 78 82 92 92 89 89 88 88 93 89 96 94 96 96 96 96 96 96 96 96 97

GFSMW_sfc_rhum_159.txt.gz
RH
51 52 52 47 46 50 51 55 56 61 60 57 57 53 56 58 57 57 63 66 66 67 67 62 63 66 70 77 78 81 80 73 80 97 96 95 90 87 88 92 86 73 69
53 54 50 48 51 51 54 52 53 57 58 54 56 58 59 58 58 59 62 66 67 68 64 69 69 70 72 79 79 82 84 77 73 94 96 96 94 95 89 91 93 87 78
53 55 50 51 49 50 55 54 55 56 57 61 53 53 51 52 53 59 59 61 66 69 69 70 72 75 72 82 83 83 85 89 78 77 95 95 83 76 78 92 92 91 89
53 53 50 48 50 52 54 54 56 54 53 60 58 63 59 60 60 62 59 62 65 67 69 72 73 76 74 82 83 72 84 85 89 79 75 86 81 83 76 83 85 89 91
53 54 50 50 49 53 54 56 55 54 56 60 62 59 63 61 59 59 66 66 66 69 70 74 75 75 77 76 82 86 85 84 89 87 82 81 87 87 92 69 92 91 84
58 58 53 52 49 53 53 55 55 53 57 59 61 64 68 66 62 63 65 66 68 70 69 70 75 77 80 80 79 83 86 87 86 82 85 80 88 81 88 86 72 88 85
64 59 52 51 54 53 54 54 56 54 56 60 61 64 68 66 66 63 62 70 73 75 74 73 78 78 80 82 83 86 87 88 89 87 87 78 77 77 83 83 78 80 79
62 58 55 58 57 56 56 60 59 56 56 59 62 62 64 59 61 61 62 66 70 74 73 75 75 78 78 76 83 86 88 89 91 90 88 82 78 75 77 86 84 84 83
62 58 57 60 58 57 59 65 64 57 57 63 62 63 63 62 64 66 66 66 67 67 72 76 77 79 80 80 83 87 88 90 92 93 92 91 85 79 78 82 89 86 82
63 59 59 62 57 56 57 64 64 62 63 64 65 63 64 64 67 69 70 71 70 74 76 76 76 77 80 81 84 86 85 88 88 90 91 91 88 79 78 79 86 91 92
63 61 63 65 58 56 57 63 65 63 65 66 67 70 70 70 70 72 69 70 73 72 74 74 74 76 78 78 82 84 85 85 82 84 89 93 87 83 77 77 81 90 94
64 59 62 65 63 62 59 60 65 66 66 65 69 74 74 71 72 74 69 70 72 73 73 73 74 75 74 76 82 84 83 85 85 84 86 90 84 83 79 80 84 86 90
63 63 84 93 80 71 66 64 63 65 65 65 71 74 74 74 72 74 70 68 70 72 74 74 76 76 76 75 80 82 83 84 85 84 85 87 91 82 79 82 82 83 82
64 65 89 97 91 82 73 69 66 66 66 67 72 73 73 72 70 73 71 71 71 75 76 76 76 76 74 75 78 83 88 89 85 86 85 85 91 92 86 79 76 76 83
62 65 84 95 90 88 84 73 70 68 68 69 67 74 71 70 70 73 72 70 74 73 75 76 75 74 78 75 88 87 89 91 89 89 79 83 86 94 88 80 78 77 78
59 65 68 74 86 80 76 68 73 72 72 71 75 70 69 69 73 72 71 72 74 71 74 77 76 86 78 82 84 86 90 88 89 91 90 81 87 87 98 93 90 82 77
60 66 76 77 70 71 68 69 68 69 68 75 71 68 69 73 76 70 69 74 74 71 74 76 78 82 81 79 81 86 83 85 89 93 93 86 75 86 88 96 94 98 100
69 85 67 61 62 65 66 64 65 65 68 69 68 72 74 76 75 68 72 70 69 79 76 75 75 81 71 77 81 89 83 84 83 94 93 95 92 94 93 89 83 83 84
88 67 61 60 58 61 62 62 65 66 68 70 70 72 77 79 79 69 74 72 71 76 74 67 71 76 74 77 82 91 88 85 86 90 96 96 96 91 96 97 88 87 90
58 61 58 59 60 62 64 64 65 66 71 69 71 70 73 73 68 66 69 73 70 70 65 70 75 74 80 78 81 91 90 94 88 92 97 99 99 97 97 97 96 95 94
59 57 57 61 64 65 65 67 62 68 67 65 66 68 68 69 67 68 61 64 69 75 75 74 73 76 80 84 81 87 95 95 93 94 94 96 98 97 96 98 98 92 97
56 57 60 63 65 66 65 64 65 65 66 63 62 64 67 63 64 68 62 59 61 68 75 78 84 82 84 78 81 83 90 93 96 96 96 96 96 95 94 97 99 100 100
59 60 62 64 67 67 67 72 72 69 66 60 61 63 62 63 68 74 74 68 69 79 85 83 84 85 83 87 80 81 81 92 96 96 96 91 96 95 91 93 97 100 100
64 63 63 66 70 69 70 70 68 63 59 58 60 60 68 67 67 70 71 76 84 85 86 87 90 89 88 92 92 93 92 88 91 93 95 96 95 95 95 91 93 97 100
65 64 66 69 73 69 70 70 68 60 59 57 59 64 66 68 68 72 81 82 88 88 94 94 94 95 94 95 93 94 95 95 95 94 91 92 93 93 94 93 93 94 95
65 66 69 70 73 71 74 73 69 62 66 60 62 71 67 69 68 69 75 69 71 69 72 73 86 92 89 90 91 89 90 91 91 90 93 94 94 94 95 95 95 95 96

GFSMW_sfc_rhum_162.txt.gz
RH
33 34 35 33 31 38 37 40 40 45 41 36 38 37 38 40 40 42 50 55 57 59 60 52 56 58 60 68 69 68 71 60 54 53 51 56 68 81 83 88 78 56 48
37 36 34 34 36 37 39 37 38 41 39 35 39 42 41 39 40 41 48 52 56 58 54 62 62 66 66 70 70 70 71 69 58 59 62 62 48 52 65 84 90 82 60
35 36 34 36 35 37 41 37 38 39 41 47 35 36 34 34 36 43 43 48 54 57 59 63 65 68 67 69 74 70 74 82 71 70 84 66 50 42 40 76 85 83 80
32 33 32 34 38 40 40 39 41 39 39 46 42 49 40 40 43 43 44 47 52 55 59 65 68 70 69 72 69 64 77 81 82 72 60 61 67 93 78 71 80 84 81
35 35 32 32 34 41 42 42 40 40 43 47 49 45 47 43 41 43 51 51 50 53 56 63 66 67 67 70 72 74 78 79 86 84 79 74 63 62 89 88 84 77 84
38 37 34 34 34 42 42 43 42 39 43 46 48 52 55 54 49 49 48 46 47 49 55 60 66 69 71 75 74 76 78 75 81 83 83 80 78 63 55 65 74 75 78
43 39 34 31 35 39 42 40 41 40 42 47 48 51 53 52 51 51 47 53 50 51 56 64 68 68 72 74 74 74 77 76 78 83 85 81 80 74 70 71 80 90 76
44 38 36 36 37 41 43 45 44 42 42 47 50 49 51 45 45 50 51 49 51 53 60 64 68 70 74 75 75 75 73 80 85 86 85 86 83 80 77 72 72 84 85
44 40 40 41 40 41 46 51 48 42 44 49 50 50 51 53 53 57 55 51 54 51 59 67 70 70 72 74 76 77 75 79 84 87 86 85 84 85 81 75 67 74 90
44 42 43 46 40 40 41 50 49 46 47 50 51 50 53 55 57 60 61 60 56 59 63 67 68 70 72 72 72 74 73 77 82 81 82 81 80 84 84 85 72 71 76
44 44 47 47 43 41 42 47 49 48 50 52 54 58 60 60 60 64 64 60 60 59 64 66 69 72 70 69 72 72 71 73 76 73 75 75 72 81 83 78 74 70 70
44 43 48 51 48 46 44 44 50 52 53 52 56 60 61 63 62 64 66 63 61 61 64 66 70 71 67 68 71 73 71 73 76 75 77 76 65 74 80 83 78 73 68
45 47 74 88 66 57 52 48 47 50 52 52 56 60 65 66 64 65 68 63 61 62 63 66 72 73 72 68 67 68 71 72 73 76 80 80 82 83 82 83 88 79 66
48 53 88 100 98 72 60 54 52 52 53 53 55 62 65 66 66 68 67 65 62 65 64 66 68 72 70 69 67 72 75 72 70 78 81 80 83 85 83 82 87 83 79
50 54 86 100 100 99 80 59 57 54 54 54 57 62 61 61 63 68 66 63 66 62 62 64 66 67 69 64 77 78 79 77 77 75 70 75 80 86 90 86 90 86 85
48 52 59 72 93 77 64 56 59 59 56 58 60 57 59 60 67 66 62 62 61 59 62 67 66 72 64 76 75 79 83 76 76 79 74 71 81 82 86 88 94 94 94
50 53 62 73 68 63 55 56 54 55 55 62 57 58 63 68 67 59 56 61 64 62 67 68 66 68 68 72 74 76 76 75 75 77 76 71 66 86 82 85 93 93 98
51 64 69 76 55 50 50 52 51 55 57 57 54 62 70 67 64 59 56 61 63 67 67 65 65 68 61 71 73 82 76 76 72 75 71 73 77 82 97 89 85 86 86
63 74 65 48 44 45 46 45 47 49 52 56 58 62 66 67 66 67 60 59 59 63 65 60 65 68 67 72 75 81 82 80 78 69 71 71 75 81 88 96 91 89 90
48 45 44 42 44 47 45 45 46 49 55 57 60 58 64 61 60 64 59 56 55 56 56 63 68 73 72 73 74 79 86 93 88 82 75 78 83 88 91 95 96 96 95
46 41 40 43 45 46 45 45 45 51 53 52 52 55 56 58 59 59 56 52 57 64 66 67 66 68 74 79 80 79 94 94 91 90 90 87 84 89 92 95 96 97 94
42 40 42 44 45 44 45 43 46 44 47 46 47 49 55 54 54 61 56 52 54 60 67 70 78 76 81 75 78 80 88 93 95 94 94 95 89 87 91 95 95 94 98
40 39 41 48 49 46 45 47 49 42 44 44 44 45 49 50 55 64 70 63 63 72 80 75 79 80 81 85 77 78 78 86 95 95 94 89 86 86 89 92 93 91 99
42 41 44 47 52 49 49 46 46 42 37 40 42 42 48 50 53 58 61 70 76 78 80 84 87 88 87 90 91 92 90 85 89 92 93 93 93 87 83 91 93 94 94
45 44 48 50 51 49 48 45 43 43 40 41 43 47 47 49 51 63 72 71 79 81 87 90 89 94 93 92 81 88 94 95 94 93 90 90 91 90 91 91 93 93 92
46 48 49 49 50 49 50 48 46 46 49 44 47 56 51 54 52 56 68 62 65 65 67 69 80 85 73 74 75 74 74 78 89 90 93 93 93 93 94 94 93 93 93